Dewpoint
56 56 56 55 53 55 58 58 56 56 56 54 53 52 52 51 49 48 48 49 47 45 43 42 41 39 38 39 38 38 36 38 38 35 35 34 34 32 32 31 30 31 31
54 54 52 52 52 56 58 57 56 56 56 55 53 52 51 51 48 48 48 48 47 45 43 41 40 39 41 39 38 38 38 38 38 35 34 32 33 33 34 33 31 30 31
51 52 49 51 52 56 57 57 56 56 55 54 52 50 48 48 46 46 47 48 44 45 43 41 40 40 40 39 39 38 37 35 36 36 33 28 29 32 34 32 33 31 32
49 49 49 50 53 55 57 57 57 56 55 54 52 49 48 47 46 46 46 48 45 43 42 41 40 41 41 40 38 36 36 35 31 34 36 35 34 32 31 32 32 33 32
46 47 49 50 53 56 57 56 57 56 56 54 53 51 48 47 47 46 46 46 44 43 41 41 41 40 38 35 34 34 33 34 33 33 34 34 34 33 32 29 31 33 35
44 46 48 51 54 57 57 56 56 56 56 55 54 51 49 47 46 46 46 44 43 42 41 39 38 37 36 34 33 33 32 33 34 35 34 35 34 34 33 31 32 33 34
42 45 50 54 56 57 57 57 56 56 56 56 55 53 49 47 47 46 46 43 40 37 37 38 39 37 35 35 34 34 35 35 34 34 36 36 36 36 36 35 33 31 31
43 49 54 55 56 57 57 58 57 56 56 56 55 53 50 48 47 47 45 41 38 38 38 40 39 36 35 36 37 36 35 33 34 33 33 34 34 34 35 34 35 31 28
45 50 55 56 57 57 57 58 57 57 57 56 55 50 48 47 45 43 42 41 39 39 40 38 37 37 38 37 34 34 33 33 34 34 32 32 33 33 33 34 33 32 23
47 50 55 56 57 57 58 58 58 57 55 52 49 46 44 44 41 42 41 39 41 40 39 38 38 35 36 35 34 33 33 32 33 32 31 31 32 30 28 27 27 29 26
51 53 54 56 57 57 57 57 57 55 49 47 44 44 43 42 42 40 39 38 40 40 41 37 35 34 34 34 32 32 32 32 32 31 30 29 29 26 25 25 23 22 20
51 53 53 54 55 55 55 55 54 51 48 47 45 43 42 41 40 38 38 42 44 41 36 36 33 34 34 33 33 31 31 31 31 31 27 26 24 24 24 23 20 20 19
48 51 52 52 53 53 53 51 49 48 47 45 43 42 42 41 40 40 43 43 38 37 35 33 32 32 33 33 33 31 31 31 31 30 25 24 25 24 24 22 20 19 18
46 46 49 51 52 51 50 49 49 48 45 43 42 43 43 43 43 43 40 37 35 33 32 32 33 34 34 33 33 31 32 32 30 27 26 25 25 24 21 19 19 18 18
45 45 45 47 49 49 50 48 47 46 45 43 44 45 44 42 40 38 35 34 34 33 33 33 33 34 34 33 32 31 29 29 27 27 26 25 25 26 24 20 19 19 19
41 43 45 46 47 49 48 45 45 46 46 45 45 41 38 36 37 37 36 35 34 33 33 33 34 33 31 33 34 32 28 27 25 25 24 24 27 27 29 29 25 22 19
42 44 45 46 48 46 44 44 45 45 43 39 38 38 37 36 35 33 32 31 32 36 34 32 33 32 32 34 34 34 27 25 25 24 23 24 22 26 24 26 24 22 22
38 39 43 42 42 41 41 38 37 35 35 35 34 34 34 33 33 33 34 38 38 33 31 31 31 31 31 34 34 33 28 24 24 24 25 25 24 23 22 20 20 19 19
32 31 32 34 34 33 33 33 33 32 31 32 33 33 33 33 34 37 38 37 32 31 30 30 29 29 29 33 34 33 28 24 24 24 25 28 24 25 27 22 21 20 19
31 31 30 29 29 29 30 32 31 31 31 32 32 33 34 37 39 37 34 31 31 29 29 28 28 30 29 32 34 33 27 25 25 26 26 29 26 25 26 22 20 19 18
30 30 30 29 29 30 31 32 33 33 34 36 38 41 39 35 33 30 29 29 29 28 28 28 28 28 29 29 33 34 28 27 26 26 26 25 27 27 25 25 22 20 20
29 29 29 29 29 29 30 31 33 36 37 36 34 33 32 31 30 30 29 29 28 27 27 24 27 27 28 30 31 33 33 29 26 26 26 26 27 28 27 25 26 26 24
27 28 28 28 29 29 30 29 31 32 32 31 30 30 30 30 30 29 28 28 27 26 26 27 26 26 27 27 31 33 33 32 29 28 28 28 28 30 27 27 28 25 22
30 28 28 28 29 30 30 30 30 29 28 27 27 27 28 28 28 28 28 28 26 25 27 26 26 26 26 26 26 27 27 31 31 29 29 27 28 25 24 24 25 23 21
29 29 30 30 29 28 27 27 27 27 26 26 27 27 27 27 27 27 27 28 29 28 28 28 27 26 25 25 27 27 26 26 28 27 29 25 25 24 24 23 22 21 20
30 28 27 26 26 27 29 30 31 29 28 28 28 27 27 27 27 27 27 30 30 31 31 31 29 29 29 30 31 32 31 32 30 27 25 23 24 24 22 21 22 19 18
Lifted_Index
-4 -3 -3 -2 -2 -2 -2 -1 -1 -1 -2 -2 -3 -3 -2 -1 -0 2 3 3 3 3 4 5 6 7 7 7 8 9 10 10 10 11 11 11 11 11 11 11 11 11 11
-4 -4 -3 -2 -2 -2 -1 -1 -1 -1 -2 -2 -3 -2 -2 -1 0 2 2 3 3 4 5 6 7 7 7 7 8 9 9 10 10 10 11 11 11 11 11 11 11 11 11
-4 -3 -3 -2 -2 -2 -1 -1 -1 -2 -2 -2 -2 -2 -1 -0 1 1 2 2 3 4 6 6 7 7 7 7 7 8 8 9 9 10 11 11 11 12 12 11 11 11 11
-3 -3 -3 -3 -2 -2 -1 -1 -2 -2 -2 -2 -2 -1 -0 0 1 1 2 3 4 5 6 6 6 6 6 6 7 7 8 8 10 11 12 12 12 12 12 12 12 12 12
-2 -2 -2 -3 -2 -2 -1 -1 -1 -2 -2 -2 -2 -1 -0 0 1 2 3 4 4 5 6 6 6 6 6 6 7 8 9 10 11 12 12 12 12 12 12 12 12 12 12
-1 -1 -2 -2 -2 -1 -1 -1 -1 -2 -2 -2 -2 -1 -0 0 1 2 4 4 5 5 5 6 6 6 7 7 8 9 10 11 12 12 12 12 12 12 12 12 12 13 13
-1 -1 -1 -1 -1 -1 -1 -1 -1 -2 -2 -2 -2 -1 -0 1 2 3 4 4 4 4 5 5 6 6 7 8 9 10 11 12 13 13 13 12 12 12 12 12 12 13 13
-0 -0 -1 -1 -1 -1 -1 -1 -2 -2 -2 -2 -2 -1 0 1 2 3 3 3 3 3 4 5 6 7 8 9 10 11 12 13 13 13 13 13 13 13 12 12 12 12 12
-0 -0 -1 -1 -2 -2 -2 -2 -2 -3 -3 -2 -2 -1 -0 1 2 2 2 2 2 3 4 5 6 8 9 10 12 12 13 13 13 14 14 14 13 13 13 12 12 12 12
-0 -1 -1 -2 -2 -2 -2 -3 -3 -3 -3 -2 -2 -1 -1 0 1 1 2 2 3 4 5 5 7 9 11 12 12 13 13 13 13 13 14 14 13 13 13 12 12 12 12
-1 -1 -2 -2 -2 -3 -3 -3 -3 -3 -3 -2 -2 -1 -1 0 1 1 2 3 4 5 5 6 8 10 11 12 12 12 12 12 12 12 13 13 13 12 12 11 12 12 12
-2 -2 -2 -3 -3 -3 -3 -4 -3 -3 -2 -2 -2 -1 -0 0 1 2 3 4 5 6 7 8 9 10 11 12 12 12 12 12 12 12 12 12 11 11 11 11 11 12 12
-3 -3 -3 -3 -3 -3 -3 -3 -3 -2 -2 -2 -1 -1 -0 1 1 2 4 5 6 7 8 9 10 11 11 12 12 12 11 11 11 11 11 10 10 10 10 10 11 11 11
-2 -2 -3 -3 -3 -3 -3 -2 -2 -1 -1 -1 -0 0 1 1 2 4 5 6 7 8 9 10 11 11 12 12 12 11 11 11 10 10 10 9 9 9 9 9 10 10 10
-1 -1 -2 -2 -2 -2 -2 -1 -1 -0 -0 -0 0 1 2 3 4 5 6 8 9 9 10 10 11 11 11 11 11 11 10 10 9 9 9 9 8 8 8 8 9 9 9
0 -0 -1 -1 -1 -1 -1 -0 0 0 -0 0 1 2 3 4 5 6 8 9 9 10 10 10 10 11 11 11 10 10 10 9 8 8 8 8 7 7 7 8 8 8 8
1 1 1 0 0 0 0 1 1 0 0 0 1 2 4 5 7 8 9 9 9 9 9 10 10 10 10 10 10 9 9 8 7 7 7 7 7 7 7 8 8 8 8
2 2 2 2 1 1 1 1 1 1 1 1 2 4 5 7 8 9 9 9 8 9 10 11 11 11 10 10 9 8 7 7 6 6 7 7 7 6 7 8 8 8 8
3 3 3 3 3 2 2 2 1 1 1 2 4 6 8 8 9 9 9 9 9 10 11 11 11 11 10 9 8 7 6 6 6 6 7 7 7 7 7 8 8 8 8
4 4 4 4 4 3 3 2 2 2 4 6 7 9 9 9 9 9 9 10 11 11 11 11 11 10 9 8 7 6 6 6 6 7 7 7 6 7 7 8 8 7 7
4 4 5 5 5 5 4 4 4 5 7 8 9 9 9 9 9 10 11 12 12 12 11 11 10 9 8 7 6 6 6 6 6 7 7 6 6 6 7 7 7 7 7
5 5 5 5 6 7 6 6 6 7 8 9 9 9 10 11 11 12 12 12 12 12 11 10 9 8 6 6 5 6 6 6 7 7 6 6 6 6 7 7 7 7 7
5 6 6 6 7 8 8 8 8 9 10 10 11 12 12 13 13 13 13 12 12 11 10 9 8 7 6 6 6 6 6 6 7 6 6 6 6 6 6 7 7 7 7
6 7 7 7 8 9 10 10 11 12 12 12 13 14 14 13 13 13 13 12 11 10 10 9 7 6 6 6 6 6 6 7 6 6 5 5 6 6 6 7 6 7 7
8 8 8 8 9 11 12 13 13 14 14 14 14 14 13 13 12 12 12 11 10 9 8 7 6 6 5 5 5 6 6 6 6 6 5 5 5 6 6 6 6 6 7
8 8 9 9 10 12 13 14 14 14 14 14 14 13 13 12 12 12 11 10 9 8 7 6 5 5 5 5 5 5 6 6 6 6 5 5 5 5 6 6 6 7 7